Meteo pe oră la Bolshie Krugovichi

Astăzi, 8 Mai, Sâmbătă

Timp Temperatura Precipitaţii Vânt Presiune Umiditate
00:00 +4°C° 0 mm 3 m/s 738 mmHg 93%
01:00 +4°C° 0 mm 3 m/s 738 mmHg 92%
02:00 +3°C° 0 mm 3 m/s 738 mmHg 91%
03:00 +3°C° 0 mm 3 m/s 739 mmHg 92%
04:00 +3°C° 0 mm 3 m/s 739 mmHg 93%
05:00 +2°C° 0 mm 3 m/s 740 mmHg 94%
06:00 +3°C° 0 mm 3 m/s 740 mmHg 89%
07:00 +3°C° 0 mm 4 m/s 740 mmHg 83%
08:00 +3°C° 0 mm 5 m/s 741 mmHg 78%
09:00 +3°C° 0 mm 5 m/s 741 mmHg 74%
10:00 +4°C° 0 mm 6 m/s 742 mmHg 71%
11:00 +5°C° 0 mm 6 m/s 742 mmHg 68%
12:00 +4°C° 0 mm 6 m/s 743 mmHg 68%
13:00 +5°C° 0 mm 5 m/s 743 mmHg 68%
14:00 +5°C° 0 mm 5 m/s 744 mmHg 68%
15:00 +6°C° 0 mm 5 m/s 744 mmHg 63%
16:00 +6°C° 0 mm 4 m/s 744 mmHg 59%
17:00 +7°C° 0 mm 4 m/s 744 mmHg 54%
18:00 +6°C° 0 mm 4 m/s 744 mmHg 62%
19:00 +4°C° 0 mm 3 m/s 745 mmHg 71%
20:00 +3°C° 0 mm 3 m/s 745 mmHg 79%
21:00 +2°C° 0 mm 3 m/s 746 mmHg 82%
22:00 +3°C° 0 mm 2 m/s 746 mmHg 86%
23:00 +2°C° 0 mm 2 m/s 746 mmHg 89%

Mâine, 9 Mai, Duminică

Timp Temperatura Precipitaţii Vânt Presiune Umiditate
00:00 +2°C° 0 mm 2 m/s 747 mmHg 90%
01:00 +1°C° 0 mm 2 m/s 747 mmHg 92%
02:00 +1°C° 0 mm 2 m/s 747 mmHg 93%
03:00 +1°C° 0 mm 2 m/s 748 mmHg 93%
04:00 +1°C° 0 mm 2 m/s 748 mmHg 94%
05:00 +1°C° 0 mm 2 m/s 749 mmHg 94%
06:00 +3°C° 0 mm 2 m/s 749 mmHg 87%
07:00 +6°C° 0 mm 1 m/s 750 mmHg 79%
08:00 +8°C° 0 mm 1 m/s 750 mmHg 71%
09:00 +8°C° 0 mm 2 m/s 750 mmHg 65%
10:00 +10°C° 0 mm 2 m/s 750 mmHg 58%
11:00 +12°C° 0 mm 2 m/s 750 mmHg 51%
12:00 +13°C° 0 mm 2 m/s 750 mmHg 48%
13:00 +14°C° 0 mm 2 m/s 750 mmHg 45%
14:00 +14°C° 0 mm 2 m/s 750 mmHg 42%
15:00 +14°C° 0 mm 2 m/s 750 mmHg 43%
16:00 +13°C° 0 mm 3 m/s 750 mmHg 44%
17:00 +13°C° 0 mm 3 m/s 750 mmHg 45%
18:00 +11°C° 0 mm 3 m/s 750 mmHg 53%
19:00 +10°C° 0 mm 2 m/s 750 mmHg 60%
20:00 +8°C° 0 mm 2 m/s 750 mmHg 68%
21:00 +8°C° 0 mm 3 m/s 751 mmHg 66%
22:00 +8°C° 0 mm 3 m/s 751 mmHg 65%
23:00 +8°C° 0 mm 3 m/s 751 mmHg 63%

Poimâine, 10 Mai, Luni

Timp Temperatura Precipitaţii Vânt Presiune Umiditate
00:00 +8°C° 0 mm 3 m/s 751 mmHg 65%
01:00 +7°C° 0 mm 3 m/s 751 mmHg 67%
02:00 +7°C° 0 mm 3 m/s 751 mmHg 69%
03:00 +5°C° 0 mm 3 m/s 751 mmHg 72%
04:00 +5°C° 0 mm 3 m/s 751 mmHg 74%
05:00 +4°C° 0 mm 3 m/s 751 mmHg 77%
06:00 +7°C° 0 mm 3 m/s 752 mmHg 72%
07:00 +9°C° 0 mm 3 m/s 752 mmHg 67%
08:00 +11°C° 0 mm 4 m/s 752 mmHg 62%
09:00 +13°C° 0 mm 4 m/s 752 mmHg 58%
10:00 +15°C° 0 mm 5 m/s 752 mmHg 54%
11:00 +16°C° 0 mm 5 m/s 752 mmHg 50%
12:00 +17°C° 0 mm 5 m/s 752 mmHg 49%
13:00 +17°C° 0 mm 5 m/s 752 mmHg 48%
14:00 +19°C° 0 mm 5 m/s 751 mmHg 46%
15:00 +19°C° 0 mm 5 m/s 751 mmHg 49%
16:00 +19°C° 0 mm 5 m/s 751 mmHg 51%
17:00 +19°C° 0 mm 4 m/s 751 mmHg 54%
18:00 +17°C° 0 mm 4 m/s 751 mmHg 60%
19:00 +14°C° 0 mm 4 m/s 751 mmHg 67%
20:00 +12°C° 0 mm 3 m/s 751 mmHg 73%
21:00 +11°C° 0 mm 3 m/s 751 mmHg 73%
22:00 +10°C° 0 mm 4 m/s 751 mmHg 73%
23:00 +10°C° 0 mm 4 m/s 751 mmHg 73%

11 Mai, Marţi

Timp Temperatura Precipitaţii Vânt Presiune Umiditate
00:00 +8°C° 0 mm 4 m/s 751 mmHg 75%
01:00 +8°C° 0 mm 4 m/s 751 mmHg 76%
02:00 +8°C° 0 mm 3 m/s 751 mmHg 77%
03:00 +7°C° 0 mm 4 m/s 751 mmHg 78%
04:00 +6°C° 0 mm 4 m/s 751 mmHg 78%
05:00 +6°C° 0 mm 4 m/s 752 mmHg 79%
06:00 +8°C° 0 mm 4 m/s 752 mmHg 73%
07:00 +9°C° 0 mm 5 m/s 752 mmHg 67%
08:00 +12°C° 0 mm 5 m/s 752 mmHg 61%
09:00 +13°C° 0 mm 5 m/s 751 mmHg 55%
10:00 +15°C° 0 mm 6 m/s 751 mmHg 50%
11:00 +16°C° 0 mm 6 m/s 751 mmHg 44%
12:00 +17°C° 0 mm 6 m/s 751 mmHg 43%
13:00 +19°C° 0 mm 6 m/s 750 mmHg 42%
14:00 +19°C° 0 mm 6 m/s 750 mmHg 41%
15:00 +19°C° 0 mm 5 m/s 750 mmHg 44%
16:00 +19°C° 0 mm 5 m/s 749 mmHg 47%
17:00 +19°C° 0 mm 4 m/s 749 mmHg 50%
18:00 +17°C° 0 mm 4 m/s 749 mmHg 56%
19:00 +14°C° 0 mm 4 m/s 749 mmHg 63%
20:00 +12°C° 0 mm 4 m/s 748 mmHg 69%
21:00 +11°C° 0 mm 3 m/s 748 mmHg 73%
22:00 +10°C° 0 mm 3 m/s 748 mmHg 76%
23:00 +10°C° 0 mm 3 m/s 748 mmHg 79%

12 Mai, Miercuri

Timp Temperatura Precipitaţii Vânt Presiune Umiditate
00:00 +9°C° 0 mm 3 m/s 748 mmHg 84%
01:00 +9°C° 0 mm 3 m/s 748 mmHg 89%
02:00 +9°C° 0 mm 3 m/s 748 mmHg 94%
03:00 +9°C° 0 mm 3 m/s 748 mmHg 95%
04:00 +9°C° 0 mm 3 m/s 747 mmHg 97%
05:00 +9°C° 0 mm 3 m/s 747 mmHg 98%
06:00 +10°C° 0 mm 3 m/s 747 mmHg 89%
07:00 +12°C° 0 mm 3 m/s 747 mmHg 81%
08:00 +13°C° 0 mm 4 m/s 747 mmHg 72%
09:00 +14°C° 0 mm 4 m/s 746 mmHg 70%
10:00 +14°C° 0 mm 4 m/s 746 mmHg 68%
11:00 +15°C° 0 mm 4 m/s 746 mmHg 66%
12:00 +14°C° 0 mm 4 m/s 745 mmHg 73%
13:00 +13°C° 0 mm 4 m/s 745 mmHg 80%
14:00 +12°C° 0 mm 5 m/s 745 mmHg 87%
15:00 +12°C° 0 mm 5 m/s 745 mmHg 80%
16:00 +13°C° 0 mm 5 m/s 745 mmHg 73%
17:00 +14°C° 0 mm 5 m/s 745 mmHg 66%
18:00 +13°C° 0 mm 5 m/s 745 mmHg 71%
19:00 +12°C° 0 mm 5 m/s 744 mmHg 77%
20:00 +11°C° 0 mm 4 m/s 744 mmHg 82%
21:00 +10°C° 0 mm 4 m/s 744 mmHg 84%
22:00 +8°C° 0 mm 4 m/s 744 mmHg 87%
23:00 +7°C° 0 mm 4 m/s 744 mmHg 90%

13 Mai, Joi

Timp Temperatura Precipitaţii Vânt Presiune Umiditate
00:00 +7°C° 0 mm 4 m/s 744 mmHg 89%
01:00 +7°C° 0 mm 4 m/s 743 mmHg 88%
02:00 +8°C° 0 mm 4 m/s 743 mmHg 87%
03:00 +8°C° 0 mm 4 m/s 743 mmHg 87%
04:00 +9°C° 0 mm 3 m/s 742 mmHg 88%
05:00 +9°C° 0 mm 3 m/s 742 mmHg 88%
06:00 +8°C° 0.1 mm 4 m/s 742 mmHg 86%
07:00 +10°C° 0.1 mm 4 m/s 741 mmHg 84%
08:00 +10°C° 0.1 mm 4 m/s 741 mmHg 82%
09:00 +10°C° 0.5 mm 3 m/s 741 mmHg 83%
10:00 +10°C° 0.5 mm 3 m/s 740 mmHg 84%
11:00 +10°C° 0.5 mm 3 m/s 740 mmHg 85%
12:00 +12°C° 0.2 mm 4 m/s 740 mmHg 76%
13:00 +13°C° 0.2 mm 4 m/s 740 mmHg 67%
14:00 +14°C° 0.2 mm 4 m/s 739 mmHg 58%
15:00 +13°C° 0.1 mm 5 m/s 740 mmHg 66%
16:00 +10°C° 0.1 mm 5 m/s 740 mmHg 74%
17:00 +9°C° 0.1 mm 5 m/s 740 mmHg 83%
18:00 +8°C° 0.4 mm 5 m/s 740 mmHg 87%
19:00 +8°C° 0.4 mm 5 m/s 740 mmHg 91%
20:00 +8°C° 0.4 mm 4 m/s 740 mmHg 95%
21:00 +8°C° 0.3 mm 4 m/s 739 mmHg 95%
22:00 +8°C° 0.3 mm 4 m/s 739 mmHg 95%
23:00 +8°C° 0.3 mm 4 m/s 739 mmHg 95%
Arată mai mult

Formular de consimțământ

Meteoprog și furnizorii noștri de servicii pot stoca și accesa date personale, precum cookies, identificatori de dispozitiv sau alte tehnologii similare pe dispozitivul dumneavoastră și procesa astfel de date pentru a personaliza conținutul și reclamele, dar și pentru a oferi caracteristici de social media și pentru a analiza traficul.

  • Stocarea și/sau accesarea informațiilor pe dispozitivul dumneavoastră

    Cookies, identificatori de dispozitiv sau alte informații pot fi stocate sau accesate pe dispozitiv în scopurile indicate mai sus.

  • Reclame și conținut personalizat, evaluarea reclamelor și a conținutului, informații despre audiențe și dezvoltarea produselor

    Reclamele și conținutul pot fi personalizate pe baza unui profil. Pot fi adăugate date suplimentare pentru a personaliza mai bine reclamele și conținutul. Performanța reclamelor și conținutului poate fi măsurată. Pot fi obținute informații despre utilizatorii care au văzut reclamele și conținutul. Aceste date pot fi utilizate pentru a dezvolta sau îmbunătăți experiența utilizatorilor, sistemele și software-ul.

Dând clic pe ‘Sunt de acord’, permiteți utilizarea cookie-urilor menționate, a identificatorilor de dispozitiv, balizelor web sau altor tehnologii similare. Setările pot fi modificate din browser-ul dispozitivului dumneavoastră.

În anumite scopuri, interesele legitime pot prima asupra consimțământului. Puteți citi mai multe informații în acest sens în Politica privind Confidențialitatea Datelor și Cookie.